Regional Weather Roundup
Issued by NWS

Home | Current Version | Previous Version | Graphics & Text | Print | Product List | Glossary On
Versions: 1 2 3 4 5 6 7 8 9 10 11 12 13 14 15 16 17 18 19 20 21 22 23 24 25 26 27 28 29 30 31 32 33 34 35 36 37 38 39 40 41 42 43 44 45 46 47 48 49 50
000
ASUS45 KTFX 202204
RWRMT
MONTANA HOURLY WEATHER ROUNDUP
NATIONAL WEATHER SERVICE GREAT FALLS MT
404 PM MDT MON OCT 20 2014

NOTE: "FAIR" INDICATES FEW OR NO CLOUDS BELOW 12000 FEET WITH NO
SIGNIFICANT WEATHER AND/OR OBSTRUCTIONS TO VISIBILITY.

* THESE STATIONS ARE NOT UNDER NWS QUALITY CONTROL. THEY DO NOT
   REPORT WEATHER SUCH AS PRECIPITATION OR FOG.

MTZ001>007-043-202300-
WEST OF THE DIVIDE
CITY           SKY/WX    TMP DP  RH WIND       PRES   REMARKS
KALISPELL      SUNNY     70  39  32 NE3       29.75F
MISSOULA       SUNNY     70  37  30 CALM      29.76F
BUTTE          SUNNY     72  30  21 S17       29.90F
MULLAN PASS    PTCLDY    59  30  33 VRB6      29.87S
* ESSEX        N/A       71  31  23 S4G12      N/A
* LINCOLN      N/A       77  32  19 SW6G21     N/A
* POLSON       N/A       70  43  38 N2         N/A
* RONAN APT    SUNNY     68  45  44 N/A        N/A
* SEELEY LAKE  N/A       75  32  21 S4         N/A
* THOMP F APT  SUNNY     65  28  25 S9G17      N/A
$$

MTZ008-052>055-202300-
SOUTHWEST MONTANA
CITY           SKY/WX    TMP DP  RH WIND       PRES   REMARKS
BOZEMAN        SUNNY     73  36  26 SE5       29.86F
DILLON         SUNNY     75  30  19 S20G32    29.87F
W YELLOWSTONE  SUNNY     64  32  30 SW13      30.05S
* THREE FORKS  SUNNY     75  45  34 N/A        N/A
* BOULDER HILL N/A       70  31  24 SW17G27    N/A
* MONIDA PASS  N/A       62  29  29 S14G23     N/A
* RAYNOLDS PAS N/A       66  47  51 SE12G20    N/A
* WHITEHALL    N/A       76  31  19 S3         N/A
* WISE RIVER   N/A       71  30  22 W7G16      N/A
$$

MTZ009>010-012-014-046-048-049-054-202300-
EAST SLOPES AND CENTRAL MONTANA
CITY           SKY/WX    TMP DP  RH WIND       PRES   REMARKS
CUT BANK       SUNNY     77  25  14 SW21G28   29.74S
GREAT FALLS    SUNNY     79  30  17 SW17      29.77S
HELENA         SUNNY     73  36  26 NW5       29.79F
MALMSTROM AFB  SUNNY     77  30  18 SW17G23   29.78S
* CONRAD       SUNNY     79  28  15 SE14G21    N/A
* DEARBORN     N/A       77  31  19 S9G14      N/A
* EAST GLACIER N/A       68  26  21 W24G35     N/A
* MONARCH      N/A       70  26  19 SW12G20    N/A
* PENDROY      N/A       76  29  18 SW11       N/A
* ROGERS PASS  N/A       72  27  19 SE9G20     N/A
* SAINT MARY   N/A       70  27  20 SW7G17     N/A
* SWEET GRASS  N/A       76  24  14 SW16G24    N/A
$$

MTZ011-013-016-021-035-040-045-047-050-051-202300-
NORTH CENTRAL MONTANA
CITY           SKY/WX    TMP DP  RH WIND       PRES   REMARKS
HAVRE          SUNNY     77  43  30 E3        29.72F
LEWISTOWN      SUNNY     75  34  22 SW14      29.84F
* CHINOOK      SUNNY     73  46  38 E7        29.73F
* FORT BENTON  SUNNY     81  30  16 S12       29.74S
* CHESTER      N/A       78  25  14 SW8G17     N/A
* DENTON       N/A       80  34  19 W11G16     N/A
* GEYSER       N/A       76  33  21 SW11G21    N/A
* JUDITH GAP   N/A       74  34  23 SW7G16     N/A
* LOMA         N/A       81  31  16 SW14G21    N/A
$$

MTZ017>020-022>027-061-062-202300-
NORTHEAST MONTANA
CITY           SKY/WX    TMP DP  RH WIND       PRES   REMARKS
GLASGOW        PTCLDY    73  43  34 SE13      29.77F
GLENDIVE       PTCLDY    73  43  34 S9        29.86S
JORDAN         PTCLDY    79  34  20 SW13      29.80S
SIDNEY         PTCLDY    75  43  32 S8        29.84F
WOLF POINT     PTSUNNY   81  43  26 S9        29.78F
* BEAVER HILL  N/A       76  42  30 S14        N/A
* CIRCLE       N/A       78  43  29 S10        N/A
* LINDSAY DVD  N/A       73  38  28 S12        N/A
* NAVAJO       N/A       73  42  33 S12        N/A
$$

MTZ028>042-056>058-202300-
SOUTHCENTRAL AND SOUTHEAST MONTANA
CITY           SKY/WX    TMP DP  RH WIND       PRES   REMARKS
BAKER          SUNNY     75  43  32 S14       29.89F
BILLINGS       SUNNY     79  27  15 VRB5      29.86F
LIVINGSTON     SUNNY     79  27  15 S20G25    29.87F
MILES CITY     SUNNY     75  36  24 S3        29.84F
* LAUREL APT   SUNNY     79  32  18 SE5        N/A
* ROUNDUP APT  SUNNY     79  32  18 SW5        N/A
* ALZADA       N/A       73  46  38 E7G12      N/A
* HYSHAM       N/A       76  31  19 SW2G7      N/A
* LAME DEER    N/A       72  30  21 E4         N/A
* REED POINT   N/A       78  33  19 NE6        N/A
* ROSCOE HILL  N/A       71  23  16 E11G16     N/A
$$

REGIONAL REPORTS...DAKOTAS
CITY           SKY/WX    TMP DP  RH WIND       PRES   REMARKS
WILLISTON      SUNNY     77  41  28 S8        29.83F
DICKINSON      SUNNY     72  43  35 S17G28    29.89S
BEACH          N/A       75  39  27 S17       29.88F
CROSBY         SUNNY     73  41  32 S14G20    29.84F
TIOGA          SUNNY     72  39  30 SE17G25   29.89F
BISMARCK       SUNNY     72  34  25 S17       29.96F
GRAND FORKS    SUNNY     59  43  56 E3        30.02F
FARGO          SUNNY     63  43  48 NE7       30.02F
RAPID CITY     SUNNY     77  45  32 S16       29.92F
$$

REGIONAL REPORTS...WYOMING/IDAHO/WASHINGTON
CITY           SKY/WX    TMP DP  RH WIND       PRES   REMARKS
GILLETTE       SUNNY     79  27  15 S10       29.92S
SHERIDAN       SUNNY     79  30  17 NW5       29.89F
CODY           SUNNY    N/A N/A N/A SE14      29.93F
YELLOWSTONE LA SUNNY     61  30  31 VRB3      30.14F
SALMON         SUNNY     70  34  27 W3        29.79F
MULLAN PASS    PTCLDY    59  30  33 VRB6      29.87S
SAND POINT     PTCLDY    64  48  56 CALM      29.75F
SPOKANE        PTSUNNY   68  45  44 SW9       29.75F

$$



USA.gov is the U.S. government's official web portal to all federal, state and local government web resources and services.